LSP082 SCCI-SCEL

Flight info

Callsign LSP082
Flight time N/A
Altitude 36000
Route SIRUN4A SIRUN UQ802 CAUKE/N0489F380 UQ802 EROLO EROLO7F
Aircraft B77W/H-SDE1E2E3FGHIJ2J3J4J5M1RWXY/LB1D1

Departure

Time N/A
Airport President Carlos Ibáñez International Airport (SCCI)

Arrival

Time 2026-05-07 02:11
Airport Comodoro Arturo Merino Benítez International Airport (SCEL)
Time Latitude Longitude Altitude Speed Heading
2026-05-06 23:46 -52.10269 -72.28008 31939 ft 476 kts 317°
2026-05-06 23:46 -52.07789 -72.31583 32322 ft 477 kts 317°
2026-05-06 23:46 -52.05304 -72.35160 32705 ft 478 kts 317°
2026-05-06 23:46 -52.02814 -72.38736 33068 ft 478 kts 317°
2026-05-06 23:47 -52.00313 -72.42324 33438 ft 479 kts 317°
2026-05-06 23:47 -51.97809 -72.45909 33788 ft 480 kts 317°
2026-05-06 23:47 -51.95303 -72.49493 34129 ft 481 kts 317°
2026-05-06 23:47 -51.92820 -72.53039 34375 ft 482 kts 316°
2026-05-06 23:48 -51.90295 -72.56640 34601 ft 484 kts 316°
2026-05-06 23:48 -51.87763 -72.60244 34913 ft 484 kts 316°
2026-05-06 23:48 -51.85234 -72.63828 35237 ft 483 kts 317°
2026-05-06 23:48 -51.82583 -72.67197 35534 ft 485 kts 322°
2026-05-06 23:49 -51.79728 -72.70120 35804 ft 487 kts 327°
2026-05-06 23:49 -51.76797 -72.72887 36068 ft 488 kts 327°
2026-05-06 23:49 -51.73862 -72.75643 36342 ft 488 kts 327°
2026-05-06 23:49 -51.70924 -72.78412 36597 ft 489 kts 326°
2026-05-06 23:50 -51.67993 -72.81192 36840 ft 490 kts 326°
2026-05-06 23:50 -51.62123 -72.86787 37388 ft 490 kts 326°
2026-05-06 23:50 -51.59178 -72.89600 37459 ft 495 kts 326°
2026-05-06 23:51 -51.56213 -72.92429 37609 ft 497 kts 326°
2026-05-06 23:51 -51.53245 -72.95252 37929 ft 495 kts 326°
2026-05-06 23:51 -51.50275 -72.98070 38033 ft 497 kts 325°
2026-05-06 23:51 -51.47307 -73.00881 38091 ft 494 kts 325°
2026-05-06 23:52 -51.41421 -73.06444 38086 ft 488 kts 325°
2026-05-06 23:52 -51.35618 -73.11917 38093 ft 486 kts 325°
2026-05-06 23:53 -51.29796 -73.17395 38083 ft 485 kts 325°
2026-05-06 23:53 -51.23968 -73.22853 38113 ft 486 kts 325°
2026-05-06 23:54 -51.19115 -73.27382 38130 ft 487 kts 325°
2026-05-06 23:54 -51.13237 -73.32858 38123 ft 490 kts 325°
2026-05-06 23:55 -51.07329 -73.38344 38109 ft 492 kts 325°
2026-05-06 23:55 -51.01405 -73.43829 38122 ft 493 kts 325°
2026-05-06 23:56 -50.95468 -73.49311 38130 ft 494 kts 325°
2026-05-06 23:56 -50.89557 -73.54752 38156 ft 494 kts 326°
2026-05-06 23:57 -50.83598 -73.60221 38138 ft 495 kts 325°
2026-05-06 23:57 -50.77635 -73.65677 38154 ft 494 kts 325°
2026-05-06 23:58 -50.71684 -73.71107 38145 ft 494 kts 325°
2026-05-06 23:58 -50.65726 -73.76526 38133 ft 493 kts 325°
2026-05-06 23:59 -50.59787 -73.81913 38146 ft 492 kts 325°
2026-05-06 23:59 -50.53848 -73.87287 38162 ft 492 kts 325°
2026-05-07 00:00 -50.47951 -73.92603 38163 ft 492 kts 325°
2026-05-07 00:00 -50.42009 -73.97949 38159 ft 492 kts 325°
2026-05-07 00:01 -50.35569 -74.01776 38159 ft 505 kts 346°
2026-05-07 00:01 -50.28498 -74.02034 38165 ft 514 kts
2026-05-07 00:02 -50.21358 -74.00913 38145 ft 517 kts
2026-05-07 00:02 -50.14181 -73.99816 38158 ft 519 kts
2026-05-07 00:03 -50.06966 -73.98824 38164 ft 521 kts
2026-05-07 00:03 -49.99776 -73.97883 38177 ft 522 kts
2026-05-07 00:04 -49.92532 -73.96938 38158 ft 523 kts
2026-05-07 00:04 -49.85284 -73.95989 38181 ft 523 kts
2026-05-07 00:05 -49.78039 -73.95038 38168 ft 519 kts
2026-05-07 00:05 -49.70899 -73.94101 38159 ft 512 kts
2026-05-07 00:06 -49.63766 -73.93176 38156 ft 515 kts
2026-05-07 00:06 -49.56611 -73.92249 38157 ft 517 kts
2026-05-07 00:07 -49.49428 -73.91318 38146 ft 518 kts
2026-05-07 00:07 -49.42229 -73.90389 38164 ft 520 kts
2026-05-07 00:08 -49.35009 -73.89459 38162 ft 521 kts
2026-05-07 00:08 -49.27783 -73.88531 38142 ft 522 kts
2026-05-07 00:09 -49.20584 -73.87610 38162 ft 522 kts
2026-05-07 00:09 -49.13338 -73.86686 38181 ft 522 kts
2026-05-07 00:10 -49.06099 -73.85763 38158 ft 521 kts
2026-05-07 00:10 -48.98878 -73.84844 38159 ft 519 kts
2026-05-07 00:11 -48.91678 -73.83932 38158 ft 518 kts
2026-05-07 00:11 -48.84543 -73.83032 38154 ft 517 kts
2026-05-07 00:12 -48.77374 -73.82130 38152 ft 517 kts
2026-05-07 00:12 -48.70194 -73.81230 38157 ft 518 kts
2026-05-07 00:13 -48.63004 -73.80328 38164 ft 519 kts
2026-05-07 00:13 -48.55792 -73.79430 38150 ft 521 kts
2026-05-07 00:14 -48.48560 -73.78531 38143 ft 521 kts
2026-05-07 00:14 -48.41345 -73.77632 38143 ft 521 kts
2026-05-07 00:15 -48.34125 -73.76737 38128 ft 520 kts
2026-05-07 00:15 -48.26922 -73.75849 38143 ft 519 kts
2026-05-07 00:16 -48.19716 -73.74965 38126 ft 519 kts
2026-05-07 00:16 -48.12523 -73.74090 38116 ft 518 kts
2026-05-07 00:17 -48.05323 -73.73219 38128 ft 520 kts
2026-05-07 00:17 -47.98104 -73.72345 38142 ft 521 kts
2026-05-07 00:18 -47.90868 -73.71472 38115 ft 522 kts
2026-05-07 00:18 -47.83665 -73.70604 38135 ft 523 kts
2026-05-07 00:19 -47.76416 -73.69732 38131 ft 522 kts
2026-05-07 00:19 -47.69189 -73.68866 38150 ft 521 kts
2026-05-07 00:20 -47.61959 -73.68003 38128 ft 520 kts
2026-05-07 00:20 -47.54754 -73.67144 38150 ft 518 kts
2026-05-07 00:21 -47.47568 -73.66291 38124 ft 518 kts
2026-05-07 00:21 -47.40394 -73.65442 38145 ft 517 kts
2026-05-07 00:22 -47.33214 -73.64595 38140 ft 518 kts
2026-05-07 00:22 -47.26063 -73.63753 38143 ft 520 kts
2026-05-07 00:23 -47.18847 -73.62905 38141 ft 521 kts
2026-05-07 00:23 -47.11610 -73.62057 38152 ft 522 kts
2026-05-07 00:24 -47.04342 -73.61207 38152 ft 524 kts
2026-05-07 00:24 -46.97058 -73.60411 38135 ft 524 kts 359°
2026-05-07 00:25 -46.89776 -73.60056 38155 ft 523 kts 356°
2026-05-07 00:25 -46.82496 -73.59829 38121 ft 524 kts 357°
2026-05-07 00:26 -46.75203 -73.59544 38156 ft 524 kts 357°
2026-05-07 00:26 -46.67903 -73.59208 38165 ft 525 kts 357°
2026-05-07 00:27 -46.60602 -73.58860 38119 ft 523 kts 358°
2026-05-07 00:27 -46.53391 -73.58518 38161 ft 521 kts 358°
2026-05-07 00:28 -46.46137 -73.58182 38169 ft 520 kts 357°
2026-05-07 00:28 -46.38894 -73.57847 38124 ft 520 kts 357°
2026-05-07 00:29 -46.31644 -73.57516 38141 ft 522 kts 357°
2026-05-07 00:30 -46.17048 -73.56848 38124 ft 527 kts 357°
2026-05-07 00:30 -46.09711 -73.56513 38140 ft 528 kts 357°
2026-05-07 00:31 -46.02399 -73.56180 38160 ft 531 kts 358°
2026-05-07 00:31 -45.95006 -73.55843 38145 ft 532 kts 357°
2026-05-07 00:32 -45.87601 -73.55506 38142 ft 532 kts 357°
2026-05-07 00:32 -45.80218 -73.55170 38142 ft 530 kts 357°
2026-05-07 00:33 -45.72845 -73.54838 38131 ft 529 kts 357°
2026-05-07 00:33 -45.65478 -73.54507 38141 ft 529 kts 357°
2026-05-07 00:34 -45.58118 -73.54178 38128 ft 530 kts 357°
2026-05-07 00:34 -45.50742 -73.53848 38151 ft 530 kts 357°
2026-05-07 00:35 -45.43337 -73.53518 38151 ft 531 kts 357°
2026-05-07 00:35 -45.35989 -73.53191 38115 ft 532 kts 357°
2026-05-07 00:36 -45.28584 -73.52862 38147 ft 532 kts 358°
2026-05-07 00:36 -45.21187 -73.52533 38147 ft 531 kts 358°
2026-05-07 00:37 -45.13802 -73.52101 38132 ft 532 kts
2026-05-07 00:37 -45.06423 -73.51183 38136 ft 533 kts
2026-05-07 00:38 -44.99042 -73.50205 38141 ft 533 kts
2026-05-07 00:38 -44.91644 -73.49252 38128 ft 534 kts
2026-05-07 00:39 -44.84233 -73.48324 38138 ft 535 kts
2026-05-07 00:39 -44.76798 -73.47403 38162 ft 536 kts
2026-05-07 00:40 -44.69362 -73.46481 38130 ft 536 kts
2026-05-07 00:40 -44.61940 -73.45561 38130 ft 535 kts
2026-05-07 00:41 -44.54570 -73.44649 38115 ft 535 kts
2026-05-07 00:41 -44.47158 -73.43735 38132 ft 534 kts
2026-05-07 00:42 -44.39755 -73.42826 38129 ft 534 kts
2026-05-07 00:42 -44.32343 -73.41917 38116 ft 535 kts
2026-05-07 00:43 -44.26130 -73.41157 38134 ft 536 kts
2026-05-07 00:43 -44.18686 -73.40249 38140 ft 537 kts
2026-05-07 00:44 -44.11293 -73.39348 38121 ft 537 kts
2026-05-07 00:44 -44.03848 -73.38443 38132 ft 536 kts
2026-05-07 00:45 -43.96416 -73.37543 38109 ft 536 kts
2026-05-07 00:45 -43.88995 -73.36646 38131 ft 535 kts
2026-05-07 00:46 -43.81566 -73.35751 38135 ft 536 kts
2026-05-07 00:46 -43.74129 -73.34857 38142 ft 536 kts
2026-05-07 00:47 -43.66678 -73.33963 38132 ft 537 kts
2026-05-07 00:47 -43.59226 -73.33071 38134 ft 538 kts
2026-05-07 00:48 -43.51819 -73.32187 38140 ft 538 kts
2026-05-07 00:48 -43.44366 -73.31300 38138 ft 538 kts
2026-05-07 00:49 -43.36899 -73.30413 38121 ft 538 kts
2026-05-07 00:49 -43.29442 -73.29530 38160 ft 537 kts
2026-05-07 00:50 -43.22012 -73.28650 38141 ft 535 kts
2026-05-07 00:50 -43.14604 -73.27777 38141 ft 533 kts
2026-05-07 00:51 -43.07215 -73.26967 38146 ft 531 kts
2026-05-07 00:51 -42.99851 -73.26204 38155 ft 530 kts
2026-05-07 00:52 -42.92497 -73.25438 38150 ft 530 kts
2026-05-07 00:52 -42.85149 -73.24665 38160 ft 530 kts
2026-05-07 00:53 -42.77827 -73.23893 38151 ft 531 kts
2026-05-07 00:53 -42.70452 -73.23119 38163 ft 532 kts
2026-05-07 00:54 -42.63057 -73.22344 38163 ft 533 kts
2026-05-07 00:54 -42.55645 -73.21570 38156 ft 534 kts
2026-05-07 00:55 -42.48218 -73.20795 38164 ft 535 kts
2026-05-07 00:55 -42.40789 -73.20020 38164 ft 535 kts
2026-05-07 00:56 -42.33364 -73.19197 38164 ft 536 kts
2026-05-07 00:56 -42.25919 -73.18352 38165 ft 536 kts
2026-05-07 00:57 -42.18493 -73.17517 38166 ft 536 kts
2026-05-07 00:57 -42.11055 -73.16690 38169 ft 535 kts
2026-05-07 00:58 -42.03677 -73.15872 38167 ft 535 kts
2026-05-07 00:58 -41.96255 -73.15051 38171 ft 535 kts
2026-05-07 00:59 -41.85120 -73.13822 38178 ft 535 kts
2026-05-07 01:00 -41.77696 -73.13005 38177 ft 535 kts
2026-05-07 01:00 -41.70266 -73.12189 38165 ft 535 kts
2026-05-07 01:01 -41.62849 -73.11377 38164 ft 535 kts
2026-05-07 01:01 -41.55429 -73.10566 38146 ft 535 kts
2026-05-07 01:02 -41.48004 -73.09756 38157 ft 535 kts
2026-05-07 01:02 -41.40580 -73.08830 38154 ft 536 kts
2026-05-07 01:03 -41.33196 -73.07425 38150 ft 536 kts
2026-05-07 01:03 -41.25865 -73.05995 38150 ft 536 kts
2026-05-07 01:04 -41.18489 -73.04604 38137 ft 536 kts
2026-05-07 01:04 -41.11100 -73.03225 38130 ft 535 kts
2026-05-07 01:05 -41.03729 -73.01856 38134 ft 535 kts
2026-05-07 01:05 -40.96353 -73.00499 38138 ft 535 kts
2026-05-07 01:06 -40.88977 -72.99143 38134 ft 534 kts
2026-05-07 01:06 -40.81614 -72.97792 38147 ft 534 kts
2026-05-07 01:07 -40.74239 -72.96440 38178 ft 535 kts
2026-05-07 01:07 -40.66865 -72.95092 38196 ft 535 kts
2026-05-07 01:08 -40.59550 -72.93757 38185 ft 533 kts
2026-05-07 01:08 -40.52222 -72.92423 38171 ft 530 kts
2026-05-07 01:09 -40.44919 -72.91096 38165 ft 528 kts
2026-05-07 01:09 -40.37655 -72.89780 38174 ft 526 kts
2026-05-07 01:10 -40.30405 -72.88494 38169 ft 525 kts
2026-05-07 01:10 -40.23151 -72.87321 38169 ft 525 kts
2026-05-07 01:11 -40.15886 -72.86167 38179 ft 526 kts
2026-05-07 01:11 -40.08605 -72.84995 38174 ft 527 kts
2026-05-07 01:12 -40.01363 -72.83823 38186 ft 528 kts
2026-05-07 01:12 -39.94052 -72.82641 38187 ft 529 kts
2026-05-07 01:13 -39.86738 -72.81463 38176 ft 530 kts
2026-05-07 01:13 -39.79418 -72.80287 38190 ft 530 kts
2026-05-07 01:14 -39.72088 -72.79111 38184 ft 531 kts
2026-05-07 01:14 -39.64764 -72.77834 38185 ft 531 kts
2026-05-07 01:15 -39.57454 -72.76460 38180 ft 531 kts
2026-05-07 01:15 -39.50146 -72.75109 38187 ft 530 kts
2026-05-07 01:16 -39.42827 -72.73778 38189 ft 530 kts
2026-05-07 01:16 -39.35511 -72.72452 38192 ft 530 kts
2026-05-07 01:17 -39.28249 -72.71145 38195 ft 530 kts
2026-05-07 01:17 -39.20938 -72.69831 38193 ft 530 kts
2026-05-07 01:18 -39.13629 -72.68518 38181 ft 530 kts
2026-05-07 01:18 -39.06331 -72.67211 38183 ft 530 kts
2026-05-07 01:19 -38.99028 -72.65904 38182 ft 530 kts
2026-05-07 01:19 -38.91717 -72.64599 38180 ft 530 kts
2026-05-07 01:20 -38.84519 -72.62750 38201 ft 531 kts 11°
2026-05-07 01:20 -38.77313 -72.60619 38191 ft 531 kts 11°
2026-05-07 01:21 -38.70103 -72.58524 38198 ft 531 kts 11°
2026-05-07 01:21 -38.62902 -72.56469 38204 ft 529 kts 10°
2026-05-07 01:22 -38.55730 -72.54430 38216 ft 527 kts 11°
2026-05-07 01:22 -38.48566 -72.52394 38221 ft 526 kts 10°
2026-05-07 01:23 -38.41421 -72.50378 38215 ft 526 kts 10°
2026-05-07 01:23 -38.34266 -72.48365 38213 ft 526 kts 10°
2026-05-07 01:24 -38.27113 -72.46354 38234 ft 527 kts 10°
2026-05-07 01:24 -38.19951 -72.44343 38235 ft 527 kts 10°
2026-05-07 01:25 -38.12832 -72.42344 38232 ft 527 kts 10°
2026-05-07 01:25 -38.05663 -72.40334 38239 ft 527 kts 10°
2026-05-07 01:26 -37.98496 -72.38329 38218 ft 528 kts 10°
2026-05-07 01:26 -37.91322 -72.36327 38231 ft 528 kts 10°
2026-05-07 01:27 -37.84153 -72.34329 38232 ft 528 kts 10°
2026-05-07 01:27 -37.76975 -72.32333 38235 ft 528 kts 10°
2026-05-07 01:28 -37.69791 -72.30339 38230 ft 528 kts 10°
2026-05-07 01:28 -37.62627 -72.28342 38235 ft 527 kts 10°
2026-05-07 01:29 -37.56694 -72.26560 38239 ft 528 kts 11°
2026-05-07 01:29 -37.49565 -72.24346 38250 ft 527 kts 11°
2026-05-07 01:30 -37.42443 -72.22150 38238 ft 526 kts 11°
2026-05-07 01:30 -37.35333 -72.19984 38237 ft 525 kts 11°
2026-05-07 01:31 -37.28225 -72.17833 38227 ft 524 kts 11°
2026-05-07 01:31 -37.21136 -72.15690 38238 ft 523 kts 11°
2026-05-07 01:32 -37.14061 -72.13556 38242 ft 523 kts 11°
2026-05-07 01:32 -37.06993 -72.11426 38244 ft 522 kts 11°
2026-05-07 01:33 -36.99921 -72.09299 38240 ft 522 kts 11°
2026-05-07 01:33 -36.92841 -72.07174 38247 ft 523 kts 11°
2026-05-07 01:34 -36.85797 -72.05064 38243 ft 524 kts 11°
2026-05-07 01:34 -36.78703 -72.02942 38225 ft 524 kts 11°
2026-05-07 01:35 -36.71605 -72.00824 38243 ft 524 kts 11°
2026-05-07 01:35 -36.64510 -71.98711 38242 ft 524 kts 11°
2026-05-07 01:36 -36.57414 -71.96601 38241 ft 524 kts 11°
2026-05-07 01:36 -36.50316 -71.94494 38235 ft 524 kts 10°
2026-05-07 01:37 -36.43227 -71.92394 38243 ft 524 kts 10°
2026-05-07 01:37 -36.36120 -71.90293 38261 ft 523 kts 10°
2026-05-07 01:38 -36.29046 -71.88205 38231 ft 522 kts 10°
2026-05-07 01:38 -36.22041 -71.86141 38238 ft 520 kts 10°
2026-05-07 01:39 -36.15020 -71.84077 38236 ft 518 kts 10°
2026-05-07 01:39 -36.08013 -71.82021 38242 ft 517 kts 10°
2026-05-07 01:40 -36.01017 -71.79972 38246 ft 516 kts
2026-05-07 01:40 -35.94027 -71.77929 38249 ft 516 kts
2026-05-07 01:41 -35.87028 -71.75886 38248 ft 517 kts
2026-05-07 01:41 -35.80016 -71.73843 38234 ft 518 kts
2026-05-07 01:42 -35.73002 -71.71803 38250 ft 519 kts
2026-05-07 01:42 -35.65964 -71.69760 38252 ft 520 kts
2026-05-07 01:43 -35.58923 -71.67720 38249 ft 520 kts
2026-05-07 01:43 -35.51877 -71.65680 38251 ft 520 kts
2026-05-07 01:44 -35.44819 -71.63642 38237 ft 521 kts
2026-05-07 01:44 -35.37757 -71.61602 38249 ft 521 kts
2026-05-07 01:45 -35.30702 -71.59566 38229 ft 521 kts
2026-05-07 01:45 -35.23685 -71.57543 38246 ft 521 kts
2026-05-07 01:46 -35.16624 -71.55513 38236 ft 521 kts
2026-05-07 01:46 -35.09586 -71.53492 38245 ft 519 kts
2026-05-07 01:47 -35.02567 -71.51478 38246 ft 517 kts
2026-05-07 01:47 -34.95580 -71.49480 38243 ft 515 kts
2026-05-07 01:48 -34.88601 -71.47487 38243 ft 514 kts
2026-05-07 01:48 -34.81648 -71.45505 38234 ft 513 kts
2026-05-07 01:48 -34.78171 -71.44515 38120 ft 514 kts
2026-05-07 01:49 -34.74651 -71.43517 37329 ft 523 kts
2026-05-07 01:49 -34.71107 -71.42508 36644 ft 522 kts
2026-05-07 01:49 -34.67575 -71.41503 35909 ft 521 kts
2026-05-07 01:49 -34.64055 -71.40448 35070 ft 523 kts 12°
2026-05-07 01:50 -34.60593 -71.39020 34217 ft 528 kts 17°
2026-05-07 01:50 -34.57184 -71.37321 33158 ft 531 kts 19°
2026-05-07 01:50 -34.53803 -71.35516 32148 ft 531 kts 20°
2026-05-07 01:50 -34.50430 -71.33710 31179 ft 530 kts 19°
2026-05-07 01:51 -34.47049 -71.31945 30413 ft 525 kts 18°
2026-05-07 01:51 -34.43753 -71.30271 29654 ft 517 kts 18°
2026-05-07 01:51 -34.40454 -71.28634 28941 ft 508 kts 17°
2026-05-07 01:51 -34.37200 -71.27038 28278 ft 500 kts 17°
2026-05-07 01:52 -34.34000 -71.25479 27651 ft 493 kts 17°
2026-05-07 01:52 -34.30844 -71.23944 27016 ft 486 kts 17°
2026-05-07 01:52 -34.27720 -71.22421 26360 ft 481 kts 17°
2026-05-07 01:52 -34.24632 -71.20915 25737 ft 475 kts 17°
2026-05-07 01:53 -34.21585 -71.19428 25142 ft 470 kts 17°
2026-05-07 01:53 -34.18570 -71.17958 24531 ft 465 kts 17°
2026-05-07 01:53 -34.15580 -71.16499 23931 ft 461 kts 17°
2026-05-07 01:53 -34.12619 -71.15057 23232 ft 457 kts 17°
2026-05-07 01:54 -34.09688 -71.13629 22571 ft 452 kts 17°
2026-05-07 01:54 -34.06791 -71.12219 21971 ft 446 kts 17°
2026-05-07 01:54 -34.03927 -71.10826 21375 ft 442 kts 17°
2026-05-07 01:54 -34.01089 -71.09446 20751 ft 438 kts 17°
2026-05-07 01:55 -33.98278 -71.08081 20190 ft 432 kts 17°
2026-05-07 01:55 -33.95500 -71.06734 19606 ft 429 kts 17°
2026-05-07 01:55 -33.92745 -71.05399 19033 ft 425 kts 17°
2026-05-07 01:55 -33.90011 -71.04074 18470 ft 422 kts 17°
2026-05-07 01:56 -33.87292 -71.02758 17802 ft 420 kts 17°
2026-05-07 01:56 -33.84592 -71.01450 17148 ft 415 kts 18°
2026-05-07 01:56 -33.81937 -71.00158 16625 ft 409 kts 18°
2026-05-07 01:56 -33.79302 -70.98888 16029 ft 406 kts 18°
2026-05-07 01:57 -33.76685 -70.97630 15450 ft 404 kts 18°
2026-05-07 01:57 -33.74084 -70.96376 14864 ft 401 kts 18°
2026-05-07 01:57 -33.71509 -70.95134 14301 ft 398 kts 18°
2026-05-07 01:57 -33.68951 -70.93900 13721 ft 395 kts 18°
2026-05-07 01:58 -33.66400 -70.92670 13106 ft 393 kts 18°
2026-05-07 01:58 -33.63908 -70.91470 12528 ft 390 kts 18°
2026-05-07 01:58 -33.61400 -70.90262 11971 ft 387 kts 19°
2026-05-07 01:58 -33.58917 -70.89068 11404 ft 377 kts 19°
2026-05-07 01:59 -33.56561 -70.87921 11127 ft 352 kts 20°
2026-05-07 01:59 -33.54471 -70.86580 10942 ft 331 kts 29°
2026-05-07 01:59 -33.52600 -70.85120 10702 ft 311 kts 30°
2026-05-07 01:59 -33.50855 -70.83759 10546 ft 289 kts 29°
2026-05-07 02:00 -33.49209 -70.82516 10410 ft 269 kts 28°
2026-05-07 02:00 -33.47645 -70.81357 10331 ft 269 kts 28°
2026-05-07 02:00 -33.46006 -70.80158 10276 ft 279 kts 27°
2026-05-07 02:00 -33.44228 -70.79385 10111 ft 268 kts 359°
2026-05-07 02:01 -33.42470 -70.79725 10023 ft 249 kts 335°
2026-05-07 02:01 -33.41004 -70.80669 9997 ft 231 kts 323°
2026-05-07 02:01 -33.39708 -70.81720 9981 ft 221 kts 322°
2026-05-07 02:01 -33.38447 -70.82760 9989 ft 220 kts 322°
2026-05-07 02:02 -33.37193 -70.83786 9911 ft 217 kts 322°
2026-05-07 02:02 -33.35928 -70.84818 9520 ft 224 kts 323°
2026-05-07 02:02 -33.34634 -70.85869 8760 ft 233 kts 323°
2026-05-07 02:02 -33.33276 -70.86971 8080 ft 234 kts 324°
2026-05-07 02:03 -33.31976 -70.88021 7780 ft 218 kts 324°
2026-05-07 02:03 -33.30732 -70.89023 7658 ft 219 kts 324°
2026-05-07 02:03 -33.29462 -70.90047 7544 ft 218 kts 324°
2026-05-07 02:03 -33.28218 -70.91049 7435 ft 213 kts 324°
2026-05-07 02:04 -33.26982 -70.92046 7165 ft 214 kts 324°
2026-05-07 02:04 -33.25721 -70.92948 6901 ft 209 kts 334°
2026-05-07 02:04 -33.24324 -70.93321 6657 ft 205 kts 356°
2026-05-07 02:04 -33.22934 -70.93130 6417 ft 199 kts 13°
2026-05-07 02:05 -33.21685 -70.92481 6148 ft 195 kts 30°
2026-05-07 02:05 -33.20620 -70.91462 5941 ft 198 kts 45°
2026-05-07 02:05 -33.19882 -70.90078 5712 ft 198 kts 67°
2026-05-07 02:05 -33.19568 -70.88480 5492 ft 200 kts 84°
2026-05-07 02:06 -33.19638 -70.86856 5241 ft 192 kts 101°
2026-05-07 02:06 -33.20057 -70.85376 5086 ft 183 kts 116°
2026-05-07 02:06 -33.20731 -70.84129 5033 ft 176 kts 130°
2026-05-07 02:06 -33.21575 -70.83127 4896 ft 175 kts 139°
2026-05-07 02:07 -33.22565 -70.82263 4479 ft 170 kts 150°
2026-05-07 02:07 -33.24618 -70.81283 3992 ft 155 kts 169°
2026-05-07 02:07 -33.25678 -70.81090 3809 ft 154 kts 176°
2026-05-07 02:08 -33.26748 -70.80995 3595 ft 154 kts 177°
2026-05-07 02:08 -33.27815 -70.80909 3397 ft 153 kts 177°
2026-05-07 02:08 -33.28866 -70.80826 3175 ft 150 kts 178°
2026-05-07 02:08 -33.29897 -70.80758 2968 ft 148 kts 178°
2026-05-07 02:09 -33.30931 -70.80702 2797 ft 149 kts 179°
2026-05-07 02:09 -33.31960 -70.80649 2601 ft 147 kts 179°
2026-05-07 02:09 -33.32962 -70.80595 2388 ft 141 kts 179°
2026-05-07 02:09 -33.33939 -70.80543 2215 ft 141 kts 179°
2026-05-07 02:10 -33.34924 -70.80491 2039 ft 142 kts 179°
2026-05-07 02:10 -33.35908 -70.80439 1842 ft 141 kts 178°
2026-05-07 02:10 -33.36879 -70.80387 1680 ft 139 kts 179°
2026-05-07 02:10 -33.37823 -70.80340 1578 ft 121 kts 177°
2026-05-07 02:11 -33.38436 -70.80308 1578 ft 58 kts 178°
2026-05-07 02:11 -33.38839 -70.80285 1579 ft 55 kts 178°
2026-05-07 02:11 -33.39133 -70.80269 1578 ft 28 kts 175°
2026-05-07 02:11 -33.39317 -70.80206 1576 ft 28 kts 151°
2026-05-07 02:12 -33.39419 -70.80132 1573 ft 7 kts 148°
2026-05-07 02:12 -33.39438 -70.80117 1572 ft 2 kts 147°
2026-05-07 02:12 -33.39443 -70.80113 1572 ft 0 kts 147°
2026-05-07 02:13 -33.39446 -70.80111 1572 ft 2 kts 147°
2026-05-07 02:13 -33.39470 -70.80092 1571 ft 7 kts 144°
2026-05-07 02:13 -33.39514 -70.80028 1570 ft 14 kts 117°
2026-05-07 02:13 -33.39528 -70.79937 1570 ft 20 kts 91°
2026-05-07 02:14 -33.39524 -70.79758 1569 ft 22 kts 88°
2026-05-07 02:14 -33.39517 -70.79578 1569 ft 22 kts 87°
2026-05-07 02:14 -33.39510 -70.79400 1569 ft 22 kts 86°
2026-05-07 02:14 -33.39501 -70.79221 1569 ft 20 kts 87°
2026-05-07 02:15 -33.39496 -70.79084 1569 ft 16 kts 87°
2026-05-07 02:15 -33.39492 -70.78972 1570 ft 11 kts 88°
2026-05-07 02:15 -33.39502 -70.78908 1569 ft 8 kts 127°
2026-05-07 02:15 -33.39555 -70.78890 1569 ft 8 kts 175°
2026-05-07 02:16 -33.39612 -70.78885 1569 ft 8 kts 176°
2026-05-07 02:16 -33.39669 -70.78882 1569 ft 8 kts 178°
2026-05-07 02:16 -33.39727 -70.78880 1569 ft 8 kts 178°
2026-05-07 02:16 -33.39784 -70.78878 1569 ft 8 kts 178°
2026-05-07 02:17 -33.39841 -70.78876 1569 ft 8 kts 178°
2026-05-07 02:17 -33.39899 -70.78872 1569 ft 8 kts 175°
2026-05-07 02:17 -33.39958 -70.78867 1569 ft 8 kts 176°
2026-05-07 02:17 -33.40016 -70.78863 1569 ft 8 kts 176°
2026-05-07 02:18 -33.40068 -70.78860 1569 ft 7 kts 176°
2026-05-07 02:18 -33.40103 -70.78858 1569 ft 5 kts 185°
2026-05-07 02:18 -33.40128 -70.78889 1569 ft 6 kts 248°
2026-05-07 02:18 -33.40127 -70.78935 1569 ft 6 kts 294°
2026-05-07 02:19 -33.40097 -70.78955 1569 ft 4 kts 353°
2026-05-07 02:19 -33.40068 -70.78957 1569 ft 4 kts 356°
2026-05-07 02:19 -33.40052 -70.78959 1569 ft 0 kts 356°